Regional Weather Roundup
Issued by NWS

Home | Current Version | Previous Version | Graphics & Text | Print | Product List | Glossary On
Versions: 1 2 3 4 5 6 7 8 9 10 11 12 13 14 15 16 17 18 19 20 21 22 23 24 25 26 27 28 29 30 31 32 33 34 35 36 37 38 39 40 41 42 43 44 45 46 47 48 49 50
000
ASUS43 KMKX 272321
RWRWI

WISCONSIN REGIONAL WEATHER ROUNDUP
NATIONAL WEATHER SERVICE MILWAUKEE/SULLIVAN WI
600 PM CDT FRI MAR 27 2015

NOTE: "FAIR" INDICATES FEW OR NO CLOUDS BELOW 12,000 FEET WITH NO
SIGNIFICANT WEATHER AND/OR OBSTRUCTIONS TO VISIBILITY.

WIZ001-002-006>008-014>016-023>028-280000-
NORTHWEST WISCONSIN

CITY           SKY/WX    TMP DP  RH WIND       PRES   REMARKS
SUPERIOR ARPT  SUNNY     29  10  44 NE8       30.17S WCI  21
ASHLAND        SUNNY     28   5  37 NE8       30.19S WCI  20
HAYWARD        SUNNY     34   3  27 VRB3      30.12S
SIREN          SUNNY     35   1  23 CALM      30.14S
CUMBERLAND     SUNNY     32   1  27 CALM      30.13S
RICE LAKE      SUNNY     33   4  29 CALM      30.16R
CHETEK         SUNNY     33   5  31 N3        30.14S
LADYSMITH      SUNNY     34   4  28 CALM      30.14S
EAU CLAIRE     SUNNY     35   5  28 VRB3      30.14S
MENOMONIE      SUNNY     36   2  23 CALM      30.14S
NEW RICHMOND   SUNNY     34   1  24 CALM      30.15R
OSCEOLA        SUNNY     35   1  23 NW3       30.17S
$$

WIZ003>005-009-010-017-018-280000-
NORTH CENTRAL WISCONSIN

CITY           SKY/WX    TMP DP  RH WIND       PRES   REMARKS
MANITOWISH WTR SUNNY     29   1  30 E5        30.10S WCI  24
ARBOR VITAE    SUNNY     32   3  29 N3        30.10S
WOODRUFF       SUNNY     32   3  29 N3        30.10S
RHINELANDER    SUNNY     29   0  28 CALM      30.11S
EAGLE RIVER    SUNNY     28  -4  25 N5        30.10S WCI  22
LAND O LAKES   SUNNY     27  -3  26 N3        30.12S
PHILLIPS       SUNNY     32   4  31 N5        30.10S WCI  27
TOMAHAWK       SUNNY     31   0  26 CALM      30.11F
MEDFORD        SUNNY     30   7  37 S3        30.11F
MERRILL        SUNNY     32   2  28 E3        30.12S
$$

WIZ029-030-035-036-043>047-280000-
CENTRAL WISCONSIN

CITY           SKY/WX    TMP DP  RH WIND       PRES   REMARKS
WAUSAU         SUNNY     31   1  28 VRB5      30.11F WCI  26
MOSINEE        SUNNY     30   3  31 CALM      30.14S
MARSHFIELD     SUNNY     32   6  33 CALM      30.13F
STEVENS POINT  SUNNY     29   2  30 NE6       30.14F WCI  23
WAUPACA        SUNNY     34  -2  21 NW3       30.16S
WAUTOMA        SUNNY     33   4  29 NW8       30.16S WCI  26
WISC RAPIDS    SUNNY     31   3  30 CALM      30.16F
CAMP DOUGLAS   SUNNY     35   5  28 N3        30.14F
$$

WIZ011>013-019>022-031-037>040-048>050-280000-
NORTHEAST WISCONSIN

CITY           SKY/WX    TMP DP  RH WIND       PRES   REMARKS
ANTIGO         SUNNY     28   4  35 N6        30.11S WCI  22
SHAWANO        SUNNY     33   1  26 E3        30.16S
OCONTO         SUNNY     24  11  57 E6        30.19S WCI  17
STURGEON BAY   SUNNY     25   5  42 N5        30.21R WCI  19
GREEN BAY      SUNNY     29   8  41 NE6       30.18S WCI  23
MANITOWOC      SUNNY     27   5  39 N9        30.19R WCI  18
APPLETON       SUNNY     30   1  29 N5        30.16S WCI  25
CLINTONVILLE   SUNNY     32   0  25 W3        30.15S
OSHKOSH        SUNNY     28   7  41 SE6       30.17S WCI  22
$$

WIZ032>034-041-042-053>061-280000-
SOUTHWEST WISCONSIN

CITY           SKY/WX    TMP DP  RH WIND       PRES   REMARKS
LA CROSSE      SUNNY     36   8  31 CALM      30.16F
SPARTA         SUNNY     35   3  26 CALM      30.15F
VIROQUA        SUNNY     32   8  37 CALM      30.13F
BOSCOBEL       SUNNY     35  10  35 NW7       30.17F WCI  29
PRAIRIE DU CHI SUNNY     32   6  33 CALM      30.18S
PLATTEVILLE    SUNNY     32  10  39 W6        30.16S WCI  26
$$

WIZ056-057-062-063-064-067-068-280000-
SOUTH CENTRAL WISCONSIN

CITY           SKY/WX    TMP DP  RH WIND       PRES   REMARKS
REEDSBURG      SUNNY     33   3  28 CALM      30.14S
BARABOO/DELLS  SUNNY     33   3  27 NE7       30.14S WCI  27
LONE ROCK      SUNNY     35   5  28 VRB5      30.16S WCI  31
MINERAL POINT  SUNNY     32  10  40 W6        30.14S WCI  26
MADISON        SUNNY     34   3  27 N5        30.15S WCI  30
MIDDLETON      SUNNY     35   2  25 NE7       30.15S WCI  29
WATERTOWN      SUNNY     30   7  38 NE9       30.16R WCI  21
MONROE         SUNNY     32   9  37 N7        30.14S WCI  26
JANESVILLE     SUNNY     34   1  25 N9        30.15S WCI  26
$$

WIZ051-052-058>065-066-070>072-280000-
SOUTHEAST WISCONSIN

CITY           SKY/WX    TMP DP  RH WIND       PRES   REMARKS
MILWAUKEE      MOSUNNY   26  12  55 NE13      30.18R WCI  15
WAUKESHA       SUNNY     28   5  37 NE10      30.15  WCI  19
MILWAUKEE/TIMM SUNNY     27  10  50 NE7       30.18R WCI  19
RACINE         SUNNY     26  12  55 N20G26    30.19S WCI  12
BURLINGTON     SUNNY     28  12  51 NE9       30.16R WCI  19
KENOSHA        SUNNY     27  14  58 NE16      30.17R WCI  15
FOND DU LAC    SUNNY     29   4  34 NE9       30.17S WCI  20
SHEBOYGAN      SUNNY     25  11  55 NE12      30.18R WCI  14
WEST BEND      SUNNY     30   3  31 NE7       30.16R WCI  23
JUNEAU         SUNNY     29   7  39 N6        30.17R WCI  23
$$

LSZ147-162-280000-
LAKE SUPERIOR

STATION/POSITION TIME  TEMP    WIND        PRES    WAVE
                       AIR SEA DIR/SP/G            HT/PER
                 (UTC) (F)     (DEG/KT/KT) (MB)    (FT/S)
DEVILS ISLAND    2300   24     130/  8/ 10 1024.0F
PORT WING        2200   27      10/  7/  9 1022.7
SAXON HARBOR     2200   24      40/ 11/ 12 1022.7F
$$

LMZ867-665-643>646-280000-
LAKE MICHIGAN

STATION/POSITION TIME  TEMP    WIND        PRES    WAVE
                       AIR SEA DIR/SP/G            HT/PER
                 (UTC) (F)     (DEG/KT/KT) (MB)    (FT/S)
NORTHPORT PIER   2216   23     350/ 12/ 16 1022.4S
SISTER BAY       2217   27     360/ 13/ 18   N/A
KEWAUNEE LAKESHO 2200   26      30/  5/ 11 1021.3S
SHEBOYGAN LAKESH 2300   24      30/ 11/ 13 1023.7R
PORT WASHINGTON  2200   27      40/ 15/ 19 1022.7R
MILWAUKEE LAKESH 2300   25      30/ 16/ 19   N/A
KENOSHA   LAKESH 2300   25      30/ 18/ 22 1021.7S
$$

TC  - TEMPERATURE IN CELSIUS
VSB - VISIBILITY IN STATUTE MILES
WCI - WIND CHILL INDEX
HX  - HEAT INDEX



USA.gov is the U.S. government's official web portal to all federal, state and local government web resources and services.